Location: TAAA CAC
(31.8680°N, 109.5150°W)
Time: 21:46:25
(UTC-07:00)

Hubble Space Telescope - Pass Details

Date: 15 March 2026
Orbit: 474 x 477 km, 28.5° (Epoch: 20 April)

Event Time Altitude Azimuth Distance (km) Brightness Sun altitude
Rises 19:12:01 0° 266° (W) 2,506 6.2 -10.5°
Reaches altitude 10° 19:14:16 10° 260° (W) 1,628 4.6 -11.0°
Maximum altitude 19:17:52 45° 186° (S) 645 1.2 -11.8°
Enters shadow 19:20:23 18° 119° (ESE) 1,233 2.1 -12.3°
